Skip navigation

Daily Weather Reports

[Select Refresh to Update]


Yesterday's Data File


5/22/15
Time

Wind Dir
 

Wind Spd
mph

Wind Gust
mph

Hum In
%

Humidity
%

Temp In
 F

Temp
 F

Raw Barom
in

Tot Rain
in

DailyRain
in

HourRain
in

24HrRain
in

RainRate
in/hr
12:00am 220 2 4 34 68 76.6 56.4 30.02 11.35 0.00 0.00 0.00 0.000
12:01am 220 0 1 34 68 76.6 56.3 30.02 11.35 0.00 0.00 0.00 0.000
12:02am 221 3 5 34 68 76.6 56.4 30.02 11.35 0.00 0.00 0.00 0.000
12:03am 221 0 5 34 68 76.6 56.3 30.02 11.35 0.00 0.00 0.00 0.000
12:04am 221 0 5 34 68 76.6 56.3 30.02 11.35 0.00 0.00 0.00 0.000
12:05am 221 3 5 34 68 76.6 56.3 30.02 11.35 0.00 0.00 0.00 0.000
12:06am 221 3 5 34 68 76.6 56.3 30.02 11.35 0.00 0.00 0.00 0.000
12:07am 221 2 5 34 68 76.5 56.2 30.02 11.35 0.00 0.00 0.00 0.000
12:08am 221 3 5 34 68 76.5 56.2 30.02 11.35 0.00 0.00 0.00 0.000
12:09am 221 2 5 34 68 76.5 56.2 30.02 11.35 0.00 0.00 0.00 0.000
12:10am 221 1 5 34 68 76.5 56.2 30.02 11.35 0.00 0.00 0.00 0.000
12:11am 221 0 5 34 68 76.5 56.2 30.02 11.35 0.00 0.00 0.00 0.000
12:12am 221 1 5 34 68 76.5 56.2 30.02 11.35 0.00 0.00 0.00 0.000
12:13am 221 3 5 34 68 76.5 56.2 30.02 11.35 0.00 0.00 0.00 0.000
12:14am 221 2 5 34 68 76.5 56.1 30.02 11.35 0.00 0.00 0.00 0.000
12:15am 221 0 5 34 68 76.5 56.1 30.02 11.35 0.00 0.00 0.00 0.000
12:16am 221 0 0 34 68 76.5 56.1 30.02 11.35 0.00 0.00 0.00 0.000
12:17am 221 0 0 34 68 76.5 56.1 30.02 11.35 0.00 0.00 0.00 0.000
12:18am 221 1 1 34 68 76.5 56.1 30.02 11.35 0.00 0.00 0.00 0.000
12:19am 221 0 1 34 68 76.5 56.1 30.02 11.35 0.00 0.00 0.00 0.000
12:20am 221 0 1 34 68 76.5 56.1 30.02 11.35 0.00 0.00 0.00 0.000
12:21am 221 0 1 34 68 76.5 56.1 30.02 11.35 0.00 0.00 0.00 0.000
12:22am 221 0 1 34 68 76.5 56.1 30.02 11.35 0.00 0.00 0.00 0.000
12:23am 221 0 1 34 68 76.5 56.1 30.02 11.35 0.00 0.00 0.00 0.000
12:24am 221 0 1 34 68 76.5 56.1 30.02 11.35 0.00 0.00 0.00 0.000
12:25am 221 0 1 34 68 76.3 56.1 30.02 11.35 0.00 0.00 0.00 0.000
12:26am 221 1 2 34 68 76.3 56.1 30.02 11.35 0.00 0.00 0.00 0.000
12:27am 221 0 2 34 68 76.3 56.1 30.03 11.35 0.00 0.00 0.00 0.000
12:28am 221 0 2 34 68 76.3 56.1 30.03 11.35 0.00 0.00 0.00 0.000
12:29am 221 0 2 34 68 76.3 56.1 30.03 11.35 0.00 0.00 0.00 0.000
12:30am 221 3 3 34 68 76.3 56.1 30.02 11.35 0.00 0.00 0.00 0.000
12:31am 221 0 3 34 68 76.3 56.1 30.02 11.35 0.00 0.00 0.00 0.000
12:32am 221 0 3 34 68 76.3 56.1 30.03 11.35 0.00 0.00 0.00 0.000
12:33am 221 3 3 34 68 76.3 56.1 30.02 11.35 0.00 0.00 0.00 0.000
12:34am 221 3 4 34 68 76.3 56.1 30.02 11.35 0.00 0.00 0.00 0.000
12:35am 199 3 4 34 68 76.3 56.1 30.02 11.35 0.00 0.00 0.00 0.000
12:36am 202 1 5 34 68 76.3 56.0 30.03 11.35 0.00 0.00 0.00 0.000
12:37am 202 3 5 34 68 76.3 56.0 30.03 11.35 0.00 0.00 0.00 0.000
12:38am 202 0 5 34 68 76.3 56.0 30.03 11.35 0.00 0.00 0.00 0.000
12:39am 202 2 5 34 68 76.3 56.0 30.03 11.35 0.00 0.00 0.00 0.000
12:40am 211 3 5 34 68 76.3 56.0 30.03 11.35 0.00 0.00 0.00 0.000
12:41am 213 0 5 34 68 76.3 56.0 30.02 11.35 0.00 0.00 0.00 0.000
12:42am 213 0 5 34 68 76.3 56.0 30.03 11.35 0.00 0.00 0.00 0.000
12:43am 213 0 5 34 68 76.3 56.0 30.03 11.35 0.00 0.00 0.00 0.000
12:44am 213 2 5 34 68 76.3 55.9 30.03 11.35 0.00 0.00 0.00 0.000
12:45am 213 0 5 34 68 76.1 55.9 30.02 11.35 0.00 0.00 0.00 0.000
12:46am 213 2 2 34 68 76.1 55.9 30.03 11.35 0.00 0.00 0.00 0.000
12:47am 197 0 5 34 68 76.1 55.9 30.02 11.35 0.00 0.00 0.00 0.000
12:48am 197 0 5 34 68 76.1 55.9 30.02 11.35 0.00 0.00 0.00 0.000
12:49am 197 2 5 34 68 76.1 55.9 30.03 11.35 0.00 0.00 0.00 0.000
12:50am 197 3 5 34 68 76.1 55.9 30.02 11.35 0.00 0.00 0.00 0.000
12:51am 196 2 5 34 68 76.1 55.8 30.02 11.35 0.00 0.00 0.00 0.000
12:52am 195 1 5 34 68 76.1 55.8 30.02 11.35 0.00 0.00 0.00 0.000
12:53am 196 0 5 34 68 76.1 55.8 30.02 11.35 0.00 0.00 0.00 0.000
12:54am 195 0 5 34 68 76.1 55.8 30.02 11.35 0.00 0.00 0.00 0.000
12:55am 195 0 5 34 68 76.1 55.8 30.03 11.35 0.00 0.00 0.00 0.000
12:56am 196 2 5 34 68 76.1 55.8 30.03 11.35 0.00 0.00 0.00 0.000
12:57am 197 0 5 34 68 76.1 55.7 30.02 11.35 0.00 0.00 0.00 0.000
12:58am 195 0 5 34 68 76.1 55.7 30.03 11.35 0.00 0.00 0.00 0.000
12:59am 197 0 5 34 68 76.1 55.7 30.02 11.35 0.00 0.00 0.00 0.000
1:00am 197 0 5 34 68 76.1 55.7 30.02 11.35 0.00 0.00 0.00 0.000
1:01am 197 0 0 34 68 76.1 55.7 30.02 11.35 0.00 0.00 0.00 0.000
1:02am 197 0 2 34 68 76.1 55.7 30.02 11.35 0.00 0.00 0.00 0.000
1:03am 197 0 2 34 68 76.1 55.7 30.02 11.35 0.00 0.00 0.00 0.000
1:04am 197 0 2 34 68 75.9 55.7 30.02 11.35 0.00 0.00 0.00 0.000
1:05am 197 0 2 34 68 75.9 55.7 30.02 11.35 0.00 0.00 0.00 0.000
1:06am 197 1 3 34 68 75.9 55.7 30.02 11.35 0.00 0.00 0.00 0.000
1:07am 197 2 3 34 68 75.9 55.7 30.03 11.35 0.00 0.00 0.00 0.000
1:08am 199 1 3 34 68 75.9 55.7 30.02 11.35 0.00 0.00 0.00 0.000
1:09am 199 0 3 34 68 75.9 55.6 30.02 11.35 0.00 0.00 0.00 0.000
1:10am 199 0 3 34 68 75.9 55.6 30.03 11.35 0.00 0.00 0.00 0.000
1:11am 199 0 3 34 68 75.9 55.6 30.02 11.35 0.00 0.00 0.00 0.000
1:12am 199 0 3 34 68 75.9 55.6 30.02 11.35 0.00 0.00 0.00 0.000
1:13am 199 0 3 34 68 75.9 55.6 30.03 11.35 0.00 0.00 0.00 0.000
1:14am 199 0 3 34 68 75.9 55.6 30.02 11.35 0.00 0.00 0.00 0.000
1:15am 199 0 3 34 68 75.9 55.6 30.03 11.35 0.00 0.00 0.00 0.000
1:16am 199 0 1 34 68 75.9 55.6 30.02 11.35 0.00 0.00 0.00 0.000
1:17am 199 0 1 34 68 75.9 55.6 30.02 11.35 0.00 0.00 0.00 0.000
1:18am 199 2 2 34 68 75.9 55.6 30.02 11.35 0.00 0.00 0.00 0.000
1:19am 199 2 3 34 68 75.9 55.6 30.02 11.35 0.00 0.00 0.00 0.000
1:20am 199 2 3 34 68 75.9 55.6 30.02 11.35 0.00 0.00 0.00 0.000
1:21am 199 0 3 34 68 75.9 55.6 30.02 11.35 0.00 0.00 0.00 0.000
1:22am 199 0 3 34 68 75.9 55.5 30.02 11.35 0.00 0.00 0.00 0.000
1:23am 199 0 3 34 67 75.9 55.5 30.02 11.35 0.00 0.00 0.00 0.000
1:24am 199 0 3 34 67 75.9 55.5 30.02 11.35 0.00 0.00 0.00 0.000
1:25am 199 0 3 34 67 75.9 55.5 30.02 11.35 0.00 0.00 0.00 0.000
1:26am 199 0 3 34 67 75.9 55.5 30.02 11.35 0.00 0.00 0.00 0.000
1:27am 199 0 3 34 67 75.8 55.5 30.02 11.35 0.00 0.00 0.00 0.000
1:28am 199 0 3 34 67 75.8 55.4 30.02 11.35 0.00 0.00 0.00 0.000
1:29am 199 0 3 34 67 75.8 55.5 30.02 11.35 0.00 0.00 0.00 0.000
1:30am 199 0 3 34 67 75.8 55.5 30.02 11.35 0.00 0.00 0.00 0.000
1:31am 199 0 0 34 67 75.8 55.4 30.02 11.35 0.00 0.00 0.00 0.000
1:32am 199 0 0 34 67 75.8 55.4 30.02 11.35 0.00 0.00 0.00 0.000
1:33am 199 0 0 34 67 75.8 55.4 30.02 11.35 0.00 0.00 0.00 0.000
1:34am 199 0 0 34 67 75.8 55.5 30.02 11.35 0.00 0.00 0.00 0.000
1:35am 199 0 0 34 67 75.8 55.5 30.02 11.35 0.00 0.00 0.00 0.000
1:36am 199 0 0 34 67 75.8 55.5 30.02 11.35 0.00 0.00 0.00 0.000
1:37am 199 0 0 34 67 75.8 55.5 30.02 11.35 0.00 0.00 0.00 0.000
1:38am 199 0 2 34 67 75.8 55.5 30.02 11.35 0.00 0.00 0.00 0.000
1:39am 199 0 2 34 67 75.8 55.5 30.02 11.35 0.00 0.00 0.00 0.000
1:40am 199 0 2 34 67 75.8 55.5 30.02 11.35 0.00 0.00 0.00 0.000
1:41am 199 0 2 34 67 75.8 55.5 30.02 11.35 0.00 0.00 0.00 0.000
1:42am 199 0 2 34 67 75.8 55.5 30.02 11.35 0.00 0.00 0.00 0.000
1:43am 199 0 3 34 67 75.8 55.5 30.02 11.35 0.00 0.00 0.00 0.000
1:44am 199 0 3 34 67 75.8 55.5 30.02 11.35 0.00 0.00 0.00 0.000
1:45am 199 0 3 34 67 75.8 55.5 30.02 11.35 0.00 0.00 0.00 0.000
1:46am 199 0 0 34 67 75.8 55.5 30.02 11.35 0.00 0.00 0.00 0.000
1:47am 199 0 1 34 67 75.8 55.5 30.02 11.35 0.00 0.00 0.00 0.000
1:48am 199 0 1 34 66 75.6 55.5 30.02 11.35 0.00 0.00 0.00 0.000
1:49am 199 0 1 34 66 75.6 55.5 30.02 11.35 0.00 0.00 0.00 0.000
1:50am 199 0 1 34 66 75.6 55.5 30.02 11.35 0.00 0.00 0.00 0.000
1:51am 199 3 3 34 66 75.6 55.5 30.02 11.35 0.00 0.00 0.00 0.000
1:52am 199 0 3 34 66 75.6 55.5 30.02 11.35 0.00 0.00 0.00 0.000
1:53am 199 0 3 34 66 75.6 55.4 30.02 11.35 0.00 0.00 0.00 0.000
1:54am 199 1 3 34 66 75.6 55.4 30.02 11.35 0.00 0.00 0.00 0.000
1:55am 199 1 3 34 66 75.6 55.4 30.02 11.35 0.00 0.00 0.00 0.000
1:56am 199 0 3 34 66 75.6 55.4 30.02 11.35 0.00 0.00 0.00 0.000
1:57am 199 1 3 34 66 75.6 55.4 30.02 11.35 0.00 0.00 0.00 0.000
1:58am 199 2 3 34 66 75.6 55.4 30.02 11.35 0.00 0.00 0.00 0.000
1:59am 199 0 3 34 66 75.6 55.4 30.02 11.35 0.00 0.00 0.00 0.000
2:00am 199 1 3 34 66 75.6 55.4 30.02 11.35 0.00 0.00 0.00 0.000
2:01am 199 2 2 34 66 75.6 55.4 30.02 11.35 0.00 0.00 0.00 0.000
2:02am 199 1 3 34 66 75.6 55.4 30.02 11.35 0.00 0.00 0.00 0.000
2:02am 199 0 3 34 66 75.6 55.4 30.02 11.35 0.00 0.00 0.00 0.000
2:04am 199 1 3 34 66 75.6 55.4 30.02 11.35 0.00 0.00 0.00 0.000
2:05am 199 3 3 34 66 75.6 55.4 30.02 11.35 0.00 0.00 0.00 0.000
2:06am 199 2 3 34 66 75.6 55.4 30.02 11.35 0.00 0.00 0.00 0.000
2:07am 199 1 4 34 66 75.6 55.4 30.02 11.35 0.00 0.00 0.00 0.000
2:08am 199 0 4 34 66 75.6 55.4 30.02 11.35 0.00 0.00 0.00 0.000
2:09am 199 0 4 34 66 75.6 55.4 30.02 11.35 0.00 0.00 0.00 0.000
2:10am 199 2 4 34 66 75.4 55.4 30.02 11.35 0.00 0.00 0.00 0.000
2:11am 199 0 4 34 66 75.4 55.3 30.02 11.35 0.00 0.00 0.00 0.000
2:12am 199 0 4 34 66 75.4 55.3 30.02 11.35 0.00 0.00 0.00 0.000
2:13am 199 2 4 34 66 75.4 55.4 30.02 11.35 0.00 0.00 0.00 0.000
2:14am 199 4 4 34 66 75.4 55.3 30.02 11.35 0.00 0.00 0.00 0.000
2:15am 199 3 4 34 66 75.4 55.4 30.02 11.35 0.00 0.00 0.00 0.000
2:16am 190 3 5 34 66 75.4 55.4 30.02 11.35 0.00 0.00 0.00 0.000
2:17am 201 4 5 34 66 75.4 55.3 30.02 11.35 0.00 0.00 0.00 0.000
2:18am 201 0 5 34 66 75.4 55.3 30.02 11.35 0.00 0.00 0.00 0.000
2:19am 201 2 5 34 66 75.4 55.3 30.02 11.35 0.00 0.00 0.00 0.000
2:20am 201 3 5 34 66 75.4 55.3 30.02 11.35 0.00 0.00 0.00 0.000
2:21am 201 0 5 34 66 75.4 55.3 30.02 11.35 0.00 0.00 0.00 0.000
2:22am 201 0 5 34 66 75.4 55.3 30.02 11.35 0.00 0.00 0.00 0.000
2:23am 201 0 5 34 66 75.4 55.3 30.02 11.35 0.00 0.00 0.00 0.000
2:24am 201 2 5 34 66 75.4 55.2 30.02 11.35 0.00 0.00 0.00 0.000
2:25am 268 0 5 34 66 75.4 55.2 30.02 11.35 0.00 0.00 0.00 0.000
2:26am 268 2 5 34 66 75.4 55.2 30.02 11.35 0.00 0.00 0.00 0.000
2:27am 269 1 5 34 66 75.4 55.2 30.02 11.35 0.00 0.00 0.00 0.000
2:28am 268 0 5 34 66 75.4 55.2 30.02 11.35 0.00 0.00 0.00 0.000
2:29am 268 0 5 34 66 75.4 55.2 30.02 11.35 0.00 0.00 0.00 0.000
2:30am 269 0 5 34 66 75.4 55.2 30.02 11.35 0.00 0.00 0.00 0.000
2:31am 269 0 0 34 66 75.4 55.2 30.02 11.35 0.00 0.00 0.00 0.000
2:32am 269 0 1 34 66 75.2 55.2 30.02 11.35 0.00 0.00 0.00 0.000
2:33am 269 0 1 34 66 75.2 55.2 30.02 11.35 0.00 0.00 0.00 0.000
2:34am 269 0 1 34 66 75.2 55.2 30.02 11.35 0.00 0.00 0.00 0.000
2:35am 269 0 1 34 66 75.2 55.2 30.02 11.35 0.00 0.00 0.00 0.000
2:36am 268 0 1 34 66 75.2 55.2 30.02 11.35 0.00 0.00 0.00 0.000
2:37am 269 0 1 34 66 75.2 55.2 30.02 11.35 0.00 0.00 0.00 0.000
2:38am 269 0 1 34 66 75.2 55.2 30.02 11.35 0.00 0.00 0.00 0.000
2:39am 269 0 2 34 66 75.2 55.2 30.02 11.35 0.00 0.00 0.00 0.000
2:40am 269 0 2 34 66 75.2 55.2 30.02 11.35 0.00 0.00 0.00 0.000
2:41am 269 0 2 34 66 75.2 55.2 30.02 11.35 0.00 0.00 0.00 0.000
2:42am 269 1 2 34 66 75.2 55.1 30.02 11.35 0.00 0.00 0.00 0.000
2:43am 268 0 2 34 66 75.2 55.2 30.02 11.35 0.00 0.00 0.00 0.000
2:44am 269 0 2 34 66 75.2 55.1 30.02 11.35 0.00 0.00 0.00 0.000
2:45am 268 0 2 34 66 75.2 55.1 30.02 11.35 0.00 0.00 0.00 0.000
2:46am 269 0 0 34 66 75.2 55.1 30.02 11.35 0.00 0.00 0.00 0.000
2:47am 269 0 0 34 66 75.2 55.1 30.02 11.35 0.00 0.00 0.00 0.000
2:48am 269 0 0 34 66 75.2 55.2 30.02 11.35 0.00 0.00 0.00 0.000
2:49am 268 0 1 34 66 75.2 55.2 30.02 11.35 0.00 0.00 0.00 0.000
2:50am 268 0 1 34 66 75.2 55.2 30.02 11.35 0.00 0.00 0.00 0.000
2:51am 269 0 1 34 66 75.2 55.2 30.02 11.35 0.00 0.00 0.00 0.000
2:52am 269 0 1 34 66 75.2 55.2 30.02 11.35 0.00 0.00 0.00 0.000
2:53am 269 0 1 34 66 75.2 55.2 30.02 11.35 0.00 0.00 0.00 0.000
2:54am 269 0 1 34 66 75.2 55.2 30.02 11.35 0.00 0.00 0.00 0.000
2:55am 269 0 1 34 66 75.2 55.2 30.02 11.35 0.00 0.00 0.00 0.000
2:56am 268 1 2 34 66 75.2 55.1 30.02 11.35 0.00 0.00 0.00 0.000
2:57am 268 1 2 34 66 75.1 55.1 30.02 11.35 0.00 0.00 0.00 0.000
2:58am 268 0 2 34 66 75.1 55.1 30.02 11.35 0.00 0.00 0.00 0.000
2:59am 269 0 2 34 66 75.1 55.1 30.02 11.35 0.00 0.00 0.00 0.000
3:00am 269 0 2 34 66 75.1 55.1 30.02 11.35 0.00 0.00 0.00 0.000
3:01am 268 0 0 34 66 75.1 55.1 30.02 11.35 0.00 0.00 0.00 0.000
3:02am 269 1 1 34 66 75.1 55.1 30.01 11.35 0.00 0.00 0.00 0.000
3:03am 268 0 1 34 66 75.1 55.1 30.01 11.35 0.00 0.00 0.00 0.000
3:04am 268 0 1 34 66 75.1 55.0 30.01 11.35 0.00 0.00 0.00 0.000
3:05am 269 1 1 34 66 75.1 55.0 30.01 11.35 0.00 0.00 0.00 0.000
3:06am 269 0 1 34 66 75.1 55.0 30.01 11.35 0.00 0.00 0.00 0.000
3:07am 269 0 1 34 66 75.1 55.0 30.01 11.35 0.00 0.00 0.00 0.000
3:08am 269 0 1 34 66 75.1 55.0 30.01 11.35 0.00 0.00 0.00 0.000
3:09am 268 0 1 34 66 75.1 55.0 30.01 11.35 0.00 0.00 0.00 0.000
3:10am 268 0 1 34 66 75.1 55.0 30.01 11.35 0.00 0.00 0.00 0.000
3:11am 268 0 1 34 66 75.1 55.0 30.01 11.35 0.00 0.00 0.00 0.000
3:12am 269 0 1 34 66 75.1 55.0 30.01 11.35 0.00 0.00 0.00 0.000
3:13am 269 0 1 34 66 75.1 54.9 30.01 11.35 0.00 0.00 0.00 0.000
3:14am 269 0 1 34 66 75.1 54.9 30.01 11.35 0.00 0.00 0.00 0.000
3:15am 269 0 1 34 66 75.1 54.9 30.01 11.35 0.00 0.00 0.00 0.000
3:16am 269 0 2 34 66 75.1 54.9 30.01 11.35 0.00 0.00 0.00 0.000
3:17am 268 1 2 34 66 75.1 54.9 30.01 11.35 0.00 0.00 0.00 0.000
3:18am 268 0 2 34 66 74.9 54.9 30.01 11.35 0.00 0.00 0.00 0.000
3:19am 269 0 2 34 66 74.9 54.9 30.01 11.35 0.00 0.00 0.00 0.000
3:20am 269 0 2 34 66 74.9 54.9 30.01 11.35 0.00 0.00 0.00 0.000
3:21am 269 1 2 34 66 74.9 54.9 30.01 11.35 0.00 0.00 0.00 0.000
3:22am 268 0 2 34 66 74.9 54.9 30.01 11.35 0.00 0.00 0.00 0.000
3:23am 268 0 2 34 66 74.9 54.9 30.01 11.35 0.00 0.00 0.00 0.000
3:24am 268 0 2 34 66 74.9 54.8 30.01 11.35 0.00 0.00 0.00 0.000
3:25am 269 1 2 34 66 74.9 54.8 30.01 11.35 0.00 0.00 0.00 0.000
3:26am 268 1 2 34 66 74.9 54.8 30.01 11.35 0.00 0.00 0.00 0.000
3:27am 269 2 2 34 66 74.9 54.8 30.01 11.35 0.00 0.00 0.00 0.000
3:28am 269 0 2 34 66 74.9 54.8 30.01 11.35 0.00 0.00 0.00 0.000
3:29am 37 2 3 34 66 74.9 54.8 30.01 11.35 0.00 0.00 0.00 0.000
3:30am 36 0 3 34 66 74.9 54.8 30.01 11.35 0.00 0.00 0.00 0.000
3:31am 36 0 1 34 66 74.9 54.8 30.01 11.35 0.00 0.00 0.00 0.000
3:32am 36 2 2 34 66 74.9 54.8 30.01 11.35 0.00 0.00 0.00 0.000
3:33am 36 2 3 34 66 74.9 54.8 30.01 11.35 0.00 0.00 0.00 0.000
3:34am 37 1 3 34 66 74.9 54.8 30.01 11.35 0.00 0.00 0.00 0.000
3:35am 37 0 3 34 66 74.9 54.8 30.01 11.35 0.00 0.00 0.00 0.000
3:36am 36 1 3 34 66 74.9 54.8 30.01 11.35 0.00 0.00 0.00 0.000
3:37am 36 0 3 34 66 74.9 54.8 30.01 11.35 0.00 0.00 0.00 0.000
3:38am 36 1 3 34 66 74.9 54.9 30.01 11.35 0.00 0.00 0.00 0.000
3:39am 38 1 3 34 66 74.9 54.9 30.01 11.35 0.00 0.00 0.00 0.000
3:40am 38 2 3 34 66 74.9 54.9 30.01 11.35 0.00 0.00 0.00 0.000
3:41am 38 0 3 34 66 74.9 54.9 30.01 11.35 0.00 0.00 0.00 0.000
3:42am 38 0 3 34 66 74.7 54.9 30.01 11.35 0.00 0.00 0.00 0.000
3:43am 38 0 3 34 66 74.7 54.9 30.01 11.35 0.00 0.00 0.00 0.000
3:44am 38 0 3 34 66 74.7 54.9 30.01 11.35 0.00 0.00 0.00 0.000
3:45am 38 0 3 34 66 74.7 54.9 30.01 11.35 0.00 0.00 0.00 0.000
3:46am 38 0 0 34 67 74.7 54.9 30.01 11.35 0.00 0.00 0.00 0.000
3:46am 38 1 1 34 67 74.7 54.9 30.01 11.35 0.00 0.00 0.00 0.000
3:48am 38 2 3 34 67 74.7 54.9 30.01 11.35 0.00 0.00 0.00 0.000
3:49am 38 1 3 34 67 74.7 54.9 30.01 11.35 0.00 0.00 0.00 0.000
3:50am 38 0 3 34 67 74.7 54.9 30.01 11.35 0.00 0.00 0.00 0.000
3:51am 38 0 3 34 67 74.7 54.9 30.01 11.35 0.00 0.00 0.00 0.000
3:52am 38 0 3 34 67 74.7 54.8 30.01 11.35 0.00 0.00 0.00 0.000
3:53am 38 0 3 34 67 74.7 54.8 30.01 11.35 0.00 0.00 0.00 0.000
3:54am 38 0 3 34 67 74.7 54.8 30.01 11.35 0.00 0.00 0.00 0.000
3:55am 38 0 3 34 67 74.7 54.8 30.01 11.35 0.00 0.00 0.00 0.000
3:56am 38 0 3 34 67 74.7 54.8 30.01 11.35 0.00 0.00 0.00 0.000
3:57am 38 2 3 34 67 74.7 54.8 30.01 11.35 0.00 0.00 0.00 0.000
3:58am 40 0 3 34 67 74.7 54.8 30.01 11.35 0.00 0.00 0.00 0.000
3:59am 42 2 3 34 67 74.7 54.7 30.01 11.35 0.00 0.00 0.00 0.000
4:00am 47 3 3 34 67 74.7 54.7 30.01 11.35 0.00 0.00 0.00 0.000
4:01am 47 2 3 34 67 74.7 54.7 30.01 11.35 0.00 0.00 0.00 0.000
4:02am 47 1 3 34 67 74.7 54.7 30.01 11.35 0.00 0.00 0.00 0.000
4:03am 47 1 3 34 67 74.7 54.7 30.01 11.35 0.00 0.00 0.00 0.000
4:04am 46 0 3 34 67 74.7 54.7 30.01 11.35 0.00 0.00 0.00 0.000
4:05am 46 0 3 34 67 74.7 54.7 30.01 11.35 0.00 0.00 0.00 0.000
4:06am 47 0 3 34 67 74.7 54.6 30.01 11.35 0.00 0.00 0.00 0.000
4:07am 46 0 3 34 67 74.5 54.6 30.01 11.35 0.00 0.00 0.00 0.000
4:08am 47 0 3 34 67 74.5 54.6 30.01 11.35 0.00 0.00 0.00 0.000
4:09am 47 0 3 34 67 74.5 54.6 30.01 11.35 0.00 0.00 0.00 0.000
4:10am 47 1 3 34 67 74.5 54.6 30.01 11.35 0.00 0.00 0.00 0.000
4:11am 46 0 3 34 67 74.5 54.5 30.01 11.35 0.00 0.00 0.00 0.000
4:12am 46 0 3 34 67 74.5 54.5 30.01 11.35 0.00 0.00 0.00 0.000
4:13am 46 0 3 34 67 74.5 54.5 30.01 11.35 0.00 0.00 0.00 0.000
4:13am 47 0 3 34 68 74.5 54.5 30.01 11.35 0.00 0.00 0.00 0.000
4:15am 47 0 3 34 68 74.5 54.5 30.01 11.35 0.00 0.00 0.00 0.000
4:16am 47 0 0 34 68 74.5 54.5 30.01 11.35 0.00 0.00 0.00 0.000
4:17am 47 2 2 34 68 74.5 54.4 30.01 11.35 0.00 0.00 0.00 0.000
4:18am 46 0 2 34 68 74.5 54.4 30.01 11.35 0.00 0.00 0.00 0.000
4:19am 46 0 2 34 68 74.5 54.4 30.01 11.35 0.00 0.00 0.00 0.000
4:20am 46 0 2 34 68 74.5 54.4 30.01 11.35 0.00 0.00 0.00 0.000
4:21am 47 0 2 34 68 74.5 54.4 30.01 11.35 0.00 0.00 0.00 0.000
4:22am 47 0 2 34 68 74.5 54.4 30.01 11.35 0.00 0.00 0.00 0.000
4:23am 47 0 2 34 68 74.5 54.3 30.01 11.35 0.00 0.00 0.00 0.000
4:24am 47 0 2 34 68 74.5 54.3 30.01 11.35 0.00 0.00 0.00 0.000
4:25am 46 0 2 34 68 74.5 54.3 30.01 11.35 0.00 0.00 0.00 0.000
4:26am 46 0 2 34 68 74.4 54.3 30.01 11.35 0.00 0.00 0.00 0.000
4:27am 47 0 2 34 68 74.4 54.3 30.01 11.35 0.00 0.00 0.00 0.000
4:28am 47 0 2 34 68 74.4 54.3 30.01 11.35 0.00 0.00 0.00 0.000
4:29am 47 0 2 34 68 74.4 54.3 30.01 11.35 0.00 0.00 0.00 0.000
4:30am 47 0 2 34 68 74.4 54.2 30.01 11.35 0.00 0.00 0.00 0.000
4:31am 47 0 0 34 68 74.4 54.2 30.02 11.35 0.00 0.00 0.00 0.000
4:32am 46 0 0 34 68 74.4 54.2 30.02 11.35 0.00 0.00 0.00 0.000
4:33am 46 0 0 34 68 74.4 54.2 30.02 11.35 0.00 0.00 0.00 0.000
4:34am 47 0 0 34 68 74.4 54.2 30.02 11.35 0.00 0.00 0.00 0.000
4:35am 47 0 0 34 68 74.4 54.2 30.02 11.35 0.00 0.00 0.00 0.000
4:36am 47 0 0 34 68 74.4 54.2 30.02 11.35 0.00 0.00 0.00 0.000
4:37am 47 0 0 34 68 74.4 54.2 30.02 11.35 0.00 0.00 0.00 0.000
4:38am 47 1 2 34 68 74.4 54.2 30.02 11.35 0.00 0.00 0.00 0.000
4:39am 46 0 2 34 69 74.4 54.1 30.02 11.35 0.00 0.00 0.00 0.000
4:40am 46 0 2 34 69 74.4 54.1 30.02 11.35 0.00 0.00 0.00 0.000
4:41am 47 0 2 34 69 74.4 54.1 30.02 11.35 0.00 0.00 0.00 0.000
4:42am 47 1 2 34 69 74.4 54.1 30.02 11.35 0.00 0.00 0.00 0.000
4:43am 50 0 3 34 69 74.4 54.1 30.02 11.35 0.00 0.00 0.00 0.000
4:44am 50 2 3 34 69 74.2 54.1 30.02 11.35 0.00 0.00 0.00 0.000
4:45am 50 0 3 34 69 74.2 54.1 30.02 11.35 0.00 0.00 0.00 0.000
4:46am 50 0 1 34 69 74.2 54.1 30.02 11.35 0.00 0.00 0.00 0.000
4:47am 50 0 1 34 70 74.2 54.1 30.02 11.35 0.00 0.00 0.00 0.000
4:48am 50 0 1 34 70 74.2 54.1 30.02 11.35 0.00 0.00 0.00 0.000
4:49am 50 0 1 34 70 74.2 54.2 30.02 11.35 0.00 0.00 0.00 0.000
4:50am 50 0 1 34 70 74.2 54.2 30.02 11.35 0.00 0.00 0.00 0.000
4:51am 50 0 1 34 70 74.2 54.2 30.02 11.35 0.00 0.00 0.00 0.000
4:52am 50 0 1 34 70 74.2 54.2 30.02 11.35 0.00 0.00 0.00 0.000
4:53am 50 0 1 34 70 74.2 54.2 30.02 11.35 0.00 0.00 0.00 0.000
4:54am 50 0 1 34 70 74.2 54.1 30.02 11.35 0.00 0.00 0.00 0.000
4:55am 50 0 1 34 70 74.2 54.2 30.02 11.35 0.00 0.00 0.00 0.000
4:56am 50 0 1 34 70 74.2 54.2 30.02 11.35 0.00 0.00 0.00 0.000
4:57am 50 0 1 34 70 74.2 54.1 30.02 11.35 0.00 0.00 0.00 0.000
4:58am 50 0 1 34 70 74.2 54.1 30.02 11.35 0.00 0.00 0.00 0.000
4:59am 50 0 1 34 70 74.2 54.1 30.02 11.35 0.00 0.00 0.00 0.000
5:00am 50 0 1 34 71 74.0 54.1 30.02 11.35 0.00 0.00 0.00 0.000
5:01am 50 0 0 34 71 74.0 54.1 30.02 11.35 0.00 0.00 0.00 0.000
5:02am 50 0 0 34 71 74.0 54.1 30.02 11.35 0.00 0.00 0.00 0.000
5:03am 50 0 0 34 71 74.0 54.1 30.02 11.35 0.00 0.00 0.00 0.000
5:04am 50 0 0 34 71 74.0 54.1 30.02 11.35 0.00 0.00 0.00 0.000
5:05am 50 0 0 34 71 74.0 54.1 30.02 11.35 0.00 0.00 0.00 0.000
5:06am 50 0 0 34 71 74.0 54.0 30.02 11.35 0.00 0.00 0.00 0.000
5:07am 50 0 0 34 71 74.0 54.0 30.02 11.35 0.00 0.00 0.00 0.000
5:08am 50 0 1 34 71 74.0 54.0 30.02 11.35 0.00 0.00 0.00 0.000
5:09am 50 0 1 34 71 74.0 54.0 30.02 11.35 0.00 0.00 0.00 0.000
5:10am 50 0 1 34 71 74.0 54.0 30.02 11.35 0.00 0.00 0.00 0.000
5:11am 50 0 1 34 71 74.0 54.0 30.02 11.35 0.00 0.00 0.00 0.000
5:12am 50 0 1 34 72 74.0 54.0 30.02 11.35 0.00 0.00 0.00 0.000
5:13am 50 0 1 34 72 74.0 54.0 30.02 11.35 0.00 0.00 0.00 0.000
5:14am 50 0 1 34 72 74.0 54.0 30.02 11.35 0.00 0.00 0.00 0.000
5:15am 50 0 1 34 72 74.0 54.0 30.02 11.35 0.00 0.00 0.00 0.000
5:16am 50 0 0 34 72 74.0 54.0 30.02 11.35 0.00 0.00 0.00 0.000
5:17am 50 0 0 34 72 73.9 54.0 30.02 11.35 0.00 0.00 0.00 0.000
5:18am 50 0 0 34 72 73.9 54.0 30.02 11.35 0.00 0.00 0.00 0.000
5:19am 50 2 2 34 72 73.9 54.0 30.03 11.35 0.00 0.00 0.00 0.000
5:20am 50 0 3 34 72 73.9 54.0 30.02 11.35 0.00 0.00 0.00 0.000
5:21am 50 0 3 34 72 73.9 54.0 30.02 11.35 0.00 0.00 0.00 0.000
5:22am 50 1 3 34 72 73.9 54.0 30.02 11.35 0.00 0.00 0.00 0.000
5:23am 50 1 3 34 72 73.9 54.0 30.02 11.35 0.00 0.00 0.00 0.000
5:24am 50 0 3 34 72 73.9 54.0 30.02 11.35 0.00 0.00 0.00 0.000
5:25am 50 0 3 34 72 73.9 54.0 30.02 11.35 0.00 0.00 0.00 0.000
5:26am 50 0 3 34 72 73.9 54.0 30.02 11.35 0.00 0.00 0.00 0.000
5:27am 50 0 3 34 72 73.9 54.0 30.02 11.35 0.00 0.00 0.00 0.000
5:28am 50 0 3 34 72 73.9 54.0 30.02 11.35 0.00 0.00 0.00 0.000
5:29am 50 0 3 34 72 73.9 54.0 30.02 11.35 0.00 0.00 0.00 0.000
5:30am 50 0 3 35 72 73.9 53.9 30.02 11.35 0.00 0.00 0.00 0.000
5:31am 50 0 0 35 72 73.9 54.0 30.02 11.35 0.00 0.00 0.00 0.000
5:31am 50 0 0 35 73 73.9 54.0 30.02 11.35 0.00 0.00 0.00 0.000
5:33am 50 0 0 35 73 73.9 54.0 30.03 11.35 0.00 0.00 0.00 0.000
5:34am 50 0 0 35 73 73.9 53.9 30.02 11.35 0.00 0.00 0.00 0.000
5:35am 50 0 0 35 73 73.9 53.9 30.02 11.35 0.00 0.00 0.00 0.000
5:36am 50 0 0 35 73 73.7 53.9 30.02 11.35 0.00 0.00 0.00 0.000
5:36am 50 0 0 35 73 73.7 53.9 30.02 11.35 0.00 0.00 0.00 0.000
5:37am 50 0 0 35 73 73.7 53.9 30.02 11.35 0.00 0.00 0.00 0.000
5:39am 50 0 0 35 73 73.7 53.9 30.02 11.35 0.00 0.00 0.00 0.000
5:40am 50 0 0 35 73 73.7 53.9 30.02 11.35 0.00 0.00 0.00 0.000
5:41am 50 0 0 35 73 73.7 53.9 30.02 11.35 0.00 0.00 0.00 0.000
5:42am 50 0 0 35 73 73.7 53.9 30.02 11.35 0.00 0.00 0.00 0.000
5:43am 50 0 2 35 73 73.7 53.9 30.02 11.35 0.00 0.00 0.00 0.000
5:44am 50 0 2 35 73 73.7 53.9 30.02 11.35 0.00 0.00 0.00 0.000
5:45am 50 0 2 35 73 73.7 53.9 30.02 11.35 0.00 0.00 0.00 0.000
5:46am 50 0 1 35 73 73.7 53.9 30.02 11.35 0.00 0.00 0.00 0.000
5:47am 50 0 1 35 73 73.7 53.9 30.02 11.35 0.00 0.00 0.00 0.000
5:47am 50 0 1 35 73 73.7 53.9 30.02 11.35 0.00 0.00 0.00 0.000
5:49am 50 0 1 35 73 73.7 53.8 30.02 11.35 0.00 0.00 0.00 0.000
5:50am 50 0 1 35 73 73.7 53.8 30.03 11.35 0.00 0.00 0.00 0.000
5:51am 50 0 2 35 74 73.7 53.9 30.03 11.35 0.00 0.00 0.00 0.000
5:52am 50 0 2 35 74 73.7 53.8 30.03 11.35 0.00 0.00 0.00 0.000
5:53am 50 1 2 35 74 73.5 53.8 30.03 11.35 0.00 0.00 0.00 0.000
5:54am 50 0 2 35 74 73.5 53.8 30.03 11.35 0.00 0.00 0.00 0.000
5:55am 50 0 2 35 74 73.5 53.8 30.03 11.35 0.00 0.00 0.00 0.000
5:56am 51 0 3 35 74 73.5 53.8 30.03 11.35 0.00 0.00 0.00 0.000
5:57am 51 0 3 35 74 73.5 53.8 30.03 11.35 0.00 0.00 0.00 0.000
5:58am 51 0 3 35 74 73.5 53.8 30.03 11.35 0.00 0.00 0.00 0.000
5:59am 50 0 3 35 74 73.5 53.8 30.03 11.35 0.00 0.00 0.00 0.000
6:00am 51 0 3 35 74 73.5 53.8 30.03 11.35 0.00 0.00 0.00 0.000
6:01am 50 2 2 35 74 73.5 53.8 30.03 11.35 0.00 0.00 0.00 0.000
6:02am 54 0 2 35 74 73.5 53.8 30.03 11.35 0.00 0.00 0.00 0.000
6:03am 54 0 2 35 74 73.5 53.8 30.03 11.35 0.00 0.00 0.00 0.000
6:04am 54 0 2 35 74 73.5 53.8 30.03 11.35 0.00 0.00 0.00 0.000
6:05am 54 0 2 35 74 73.5 53.8 30.03 11.35 0.00 0.00 0.00 0.000
6:06am 54 0 2 35 74 73.5 53.8 30.03 11.35 0.00 0.00 0.00 0.000
6:07am 54 0 2 35 74 73.5 53.8 30.04 11.35 0.00 0.00 0.00 0.000
6:08am 54 2 2 35 74 73.5 53.8 30.03 11.35 0.00 0.00 0.00 0.000
6:09am 54 0 2 35 74 73.5 53.8 30.03 11.35 0.00 0.00 0.00 0.000
6:10am 54 0 2 35 74 73.5 53.8 30.03 11.35 0.00 0.00 0.00 0.000
6:11am 54 0 2 35 74 73.5 53.8 30.03 11.35 0.00 0.00 0.00 0.000
6:12am 54 0 2 35 74 73.5 53.8 30.03 11.35 0.00 0.00 0.00 0.000
6:13am 54 0 2 35 74 73.5 53.8 30.04 11.35 0.00 0.00 0.00 0.000
6:14am 54 0 2 35 74 73.5 53.8 30.03 11.35 0.00 0.00 0.00 0.000
6:15am 54 0 2 35 74 73.3 53.8 30.03 11.35 0.00 0.00 0.00 0.000
6:16am 54 0 0 35 74 73.3 53.8 30.03 11.35 0.00 0.00 0.00 0.000
6:17am 54 0 0 35 74 73.3 53.8 30.04 11.35 0.00 0.00 0.00 0.000
6:18am 54 0 1 35 74 73.3 53.8 30.04 11.35 0.00 0.00 0.00 0.000
6:18am 54 0 2 35 74 73.3 53.8 30.04 11.35 0.00 0.00 0.00 0.000
6:20am 54 3 3 35 74 73.3 53.8 30.03 11.35 0.00 0.00 0.00 0.000
6:21am 54 0 3 35 74 73.3 53.8 30.03 11.35 0.00 0.00 0.00 0.000
6:21am 54 0 3 35 74 73.3 53.8 30.03 11.35 0.00 0.00 0.00 0.000
6:23am 54 1 3 35 74 73.3 53.8 30.03 11.35 0.00 0.00 0.00 0.000
6:24am 54 0 3 35 74 73.3 53.8 30.03 11.35 0.00 0.00 0.00 0.000
6:24am 54 0 3 35 74 73.3 53.8 30.03 11.35 0.00 0.00 0.00 0.000
6:26am 54 0 3 35 74 73.3 53.8 30.03 11.35 0.00 0.00 0.00 0.000
6:27am 54 0 3 35 74 73.3 53.8 30.03 11.35 0.00 0.00 0.00 0.000
6:28am 54 1 3 35 74 73.3 53.8 30.04 11.35 0.00 0.00 0.00 0.000
6:28am 54 0 3 35 75 73.3 53.8 30.04 11.35 0.00 0.00 0.00 0.000
6:30am 54 0 3 35 75 73.3 53.8 30.04 11.35 0.00 0.00 0.00 0.000
6:31am 57 2 5 35 75 73.3 53.7 30.04 11.35 0.00 0.00 0.00 0.000
6:32am 57 0 5 35 75 73.3 53.7 30.04 11.35 0.00 0.00 0.00 0.000
6:33am 57 3 5 35 75 73.3 53.8 30.04 11.35 0.00 0.00 0.00 0.000
6:34am 57 0 5 35 75 73.3 53.7 30.04 11.35 0.00 0.00 0.00 0.000
6:35am 57 3 5 35 75 73.3 53.8 30.04 11.35 0.00 0.00 0.00 0.000
6:36am 57 1 5 35 75 73.3 53.7 30.04 11.35 0.00 0.00 0.00 0.000
6:37am 57 0 5 35 75 73.3 53.7 30.04 11.35 0.00 0.00 0.00 0.000
6:38am 57 0 5 35 75 73.2 53.8 30.04 11.35 0.00 0.00 0.00 0.000
6:39am 57 0 5 35 75 73.2 53.8 30.04 11.35 0.00 0.00 0.00 0.000
6:40am 57 0 5 35 75 73.2 53.8 30.04 11.35 0.00 0.00 0.00 0.000
6:41am 57 0 5 35 75 73.2 53.8 30.04 11.35 0.00 0.00 0.00 0.000
6:42am 57 4 5 35 75 73.2 53.8 30.04 11.35 0.00 0.00 0.00 0.000
6:43am 57 2 5 35 75 73.2 53.8 30.04 11.35 0.00 0.00 0.00 0.000
6:44am 57 2 5 35 75 73.2 53.8 30.04 11.35 0.00 0.00 0.00 0.000
6:45am 57 2 5 35 75 73.2 53.8 30.04 11.35 0.00 0.00 0.00 0.000
6:46am 61 2 5 35 75 73.2 53.8 30.04 11.35 0.00 0.00 0.00 0.000
6:47am 86 5 5 35 75 73.2 53.8 30.04 11.35 0.00 0.00 0.00 0.000
6:48am 90 4 5 35 75 73.2 53.7 30.04 11.35 0.00 0.00 0.00 0.000
6:49am 85 4 6 35 75 73.2 53.7 30.04 11.35 0.00 0.00 0.00 0.000
6:50am 104 4 6 35 75 73.2 53.6 30.04 11.35 0.00 0.00 0.00 0.000
6:51am 112 1 6 35 75 73.2 53.7 30.04 11.35 0.00 0.00 0.00 0.000
6:52am 93 3 6 35 75 73.2 53.6 30.04 11.35 0.00 0.00 0.00 0.000
6:52am 86 4 6 35 75 73.2 53.6 30.04 11.35 0.00 0.00 0.00 0.000
6:54am 96 3 6 35 75 73.2 53.6 30.04 11.35 0.00 0.00 0.00 0.000
6:55am 96 2 6 35 75 73.2 53.6 30.04 11.35 0.00 0.00 0.00 0.000
6:56am 80 0 6 35 75 73.2 53.6 30.04 11.35 0.00 0.00 0.00 0.000
6:57am 80 1 6 35 75 73.2 53.6 30.04 11.35 0.00 0.00 0.00 0.000
6:58am 80 0 6 35 76 73.2 53.6 30.04 11.35 0.00 0.00 0.00 0.000
6:58am 82 0 6 35 76 73.2 53.6 30.04 11.35 0.00 0.00 0.00 0.000
7:00am 82 2 6 35 76 73.2 53.6 30.04 11.35 0.00 0.00 0.00 0.000
7:01am 89 0 3 35 76 73.2 53.6 30.04 11.35 0.00 0.00 0.00 0.000
7:02am 89 0 3 35 76 73.2 53.7 30.04 11.35 0.00 0.00 0.00 0.000
7:03am 111 0 3 35 76 73.2 53.7 30.04 11.35 0.00 0.00 0.00 0.000
7:04am 109 0 3 35 76 73.2 53.7 30.04 11.35 0.00 0.00 0.00 0.000
7:05am 110 0 3 35 76 73.2 53.7 30.04 11.35 0.00 0.00 0.00 0.000
7:06am 110 0 3 35 76 73.2 53.7 30.04 11.35 0.00 0.00 0.00 0.000
7:07am 110 0 3 35 76 73.2 53.8 30.04 11.35 0.00 0.00 0.00 0.000
7:08am 183 3 3 35 76 73.2 53.7 30.04 11.35 0.00 0.00 0.00 0.000
7:09am 182 3 3 35 76 73.2 53.8 30.04 11.35 0.00 0.00 0.00 0.000
7:10am 182 2 4 35 76 73.0 53.8 30.04 11.35 0.00 0.00 0.00 0.000
7:11am 169 1 5 35 76 73.0 53.8 30.04 11.35 0.00 0.00 0.00 0.000
7:12am 169 4 5 35 76 73.0 53.8 30.04 11.35 0.00 0.00 0.00 0.000
7:13am 197 5 6 35 76 73.0 53.9 30.05 11.35 0.00 0.00 0.00 0.000
7:14am 157 4 7 35 76 73.0 53.9 30.05 11.35 0.00 0.00 0.00 0.000
7:15am 166 2 7 35 76 73.0 53.9 30.05 11.35 0.00 0.00 0.00 0.000
7:16am 175 3 4 35 76 73.0 53.9 30.05 11.35 0.00 0.00 0.00 0.000
7:17am 171 4 4 35 76 73.0 53.9 30.05 11.35 0.00 0.00 0.00 0.000
7:18am 172 0 4 35 76 73.0 53.9 30.05 11.35 0.00 0.00 0.00 0.000
7:19am 173 3 4 35 76 73.0 53.9 30.05 11.35 0.00 0.00 0.00 0.000
7:20am 159 5 5 35 76 73.0 53.9 30.05 11.35 0.00 0.00 0.00 0.000
7:21am 172 2 5 35 77 73.0 53.9 30.05 11.35 0.00 0.00 0.00 0.000
7:22am 151 2 5 35 77 73.0 53.9 30.05 11.35 0.00 0.00 0.00 0.000
7:23am 152 0 5 35 77 73.0 53.9 30.05 11.35 0.00 0.00 0.00 0.000
7:24am 153 0 5 35 77 73.0 53.9 30.05 11.35 0.00 0.00 0.00 0.000
7:25am 153 0 5 35 77 73.0 53.9 30.05 11.35 0.00 0.00 0.00 0.000
7:26am 145 0 5 35 77 73.0 53.9 30.05 11.35 0.00 0.00 0.00 0.000
7:27am 167 2 5 35 77 73.0 53.9 30.05 11.35 0.00 0.00 0.00 0.000
7:28am 167 0 5 35 77 73.0 53.9 30.05 11.35 0.00 0.00 0.00 0.000
7:29am 167 0 5 35 77 73.0 53.9 30.05 11.35 0.00 0.00 0.00 0.000
7:30am 86 0 5 35 77 73.0 54.0 30.05 11.35 0.00 0.00 0.00 0.000
7:31am 104 0 4 35 77 73.0 53.9 30.05 11.35 0.00 0.00 0.00 0.000
7:32am 111 0 4 35 77 73.0 53.9 30.05 11.35 0.00 0.00 0.00 0.000
7:33am 84 0 4 35 77 73.0 53.9 30.05 11.35 0.00 0.00 0.00 0.000
7:34am 92 1 4 35 78 73.0 53.9 30.05 11.35 0.00 0.00 0.00 0.000
7:35am 108 1 4 35 78 73.0 53.9 30.05 11.35 0.00 0.00 0.00 0.000
7:36am 154 0 4 35 78 73.0 53.9 30.05 11.35 0.00 0.00 0.00 0.000
7:37am 153 0 4 35 78 73.0 53.9 30.05 11.35 0.00 0.00 0.00 0.000
7:38am 81 1 4 35 78 72.8 53.9 30.05 11.35 0.00 0.00 0.00 0.000
7:39am 81 0 4 35 78 72.8 53.9 30.05 11.35 0.00 0.00 0.00 0.000
7:40am 86 0 4 35 78 72.8 53.9 30.05 11.35 0.00 0.00 0.00 0.000
7:41am 92 3 4 35 78 72.8 53.9 30.05 11.35 0.00 0.00 0.00 0.000
7:42am 90 3 4 35 78 72.8 53.9 30.05 11.35 0.00 0.00 0.00 0.000
7:43am 72 3 4 35 78 72.8 53.9 30.05 11.35 0.00 0.00 0.00 0.000
7:44am 118 1 5 35 78 72.8 53.8 30.05 11.35 0.00 0.00 0.00 0.000
7:45am 74 4 6 35 78 72.8 53.8 30.05 11.35 0.00 0.00 0.00 0.000
7:46am 107 4 4 35 79 72.8 53.8 30.05 11.35 0.00 0.00 0.00 0.000
7:47am 70 3 4 35 79 72.8 53.7 30.05 11.35 0.00 0.00 0.00 0.000
7:48am 96 2 4 35 79 72.8 53.7 30.05 11.35 0.00 0.00 0.00 0.000
7:49am 90 4 7 35 78 72.8 53.7 30.05 11.35 0.00 0.00 0.00 0.000
7:50am 84 4 7 35 79 72.8 53.6 30.05 11.35 0.00 0.00 0.00 0.000
7:51am 89 6 7 35 79 72.8 53.6 30.05 11.35 0.00 0.00 0.00 0.000
7:52am 89 5 7 35 79 72.8 53.5 30.05 11.35 0.00 0.00 0.00 0.000
7:53am 82 3 10 35 79 72.8 53.5 30.05 11.35 0.00 0.00 0.00 0.000
7:54am 93 4 10 35 79 72.8 53.5 30.05 11.35 0.00 0.00 0.00 0.000
7:55am 75 4 10 35 79 72.8 53.4 30.05 11.35 0.00 0.00 0.00 0.000
7:56am 83 6 10 35 79 72.8 53.4 30.05 11.35 0.00 0.00 0.00 0.000
7:57am 81 6 10 35 79 72.8 53.4 30.06 11.35 0.00 0.00 0.00 0.000
7:58am 82 9 10 35 79 72.7 53.3 30.06 11.35 0.00 0.00 0.00 0.000
7:59am 90 6 10 35 79 72.7 53.3 30.06 11.35 0.00 0.00 0.00 0.000
8:00am 76 9 10 36 79 72.7 53.3 30.06 11.35 0.00 0.00 0.00 0.000
8:01am 94 6 7 36 79 72.7 53.3 30.06 11.35 0.00 0.00 0.00 0.000
8:02am 113 2 7 36 79 72.7 53.2 30.06 11.35 0.00 0.00 0.00 0.000
8:03am 118 5 9 36 79 72.7 53.2 30.06 11.35 0.00 0.00 0.00 0.000
8:04am 74 6 10 36 79 72.7 53.2 30.06 11.35 0.00 0.00 0.00 0.000
8:05am 99 5 10 36 80 72.7 53.2 30.06 11.35 0.00 0.00 0.00 0.000
8:06am 92 5 10 36 80 72.7 53.1 30.06 11.35 0.00 0.00 0.00 0.000
8:07am 83 2 10 36 80 72.7 53.1 30.06 11.35 0.00 0.00 0.00 0.000
8:08am 92 5 10 36 80 72.7 53.1 30.06 11.35 0.00 0.00 0.00 0.000
8:09am 75 5 10 36 80 72.7 53.1 30.06 11.35 0.00 0.00 0.00 0.000
8:10am 94 5 10 36 80 72.7 53.1 30.06 11.35 0.00 0.00 0.00 0.000
8:11am 88 3 10 36 80 72.7 53.1 30.06 11.35 0.00 0.00 0.00 0.000
8:12am 103 1 10 36 80 72.7 53.1 30.06 11.35 0.00 0.00 0.00 0.000
8:13am 82 0 10 36 80 72.7 53.2 30.06 11.35 0.00 0.00 0.00 0.000
8:14am 82 0 10 36 80 72.7 53.2 30.06 11.35 0.00 0.00 0.00 0.000
8:15am 83 1 10 36 80 72.7 53.2 30.06 11.35 0.00 0.00 0.00 0.000
8:16am 153 0 2 36 80 72.7 53.2 30.06 11.35 0.00 0.00 0.00 0.000
8:17am 82 2 2 36 80 72.7 53.2 30.06 11.35 0.00 0.00 0.00 0.000
8:18am 74 3 4 36 80 72.7 53.2 30.06 11.35 0.00 0.00 0.00 0.000
8:19am 105 3 6 36 80 72.7 53.2 30.06 11.35 0.00 0.00 0.00 0.000
8:20am 80 3 6 36 80 72.7 53.2 30.06 11.35 0.00 0.00 0.00 0.000
8:21am 67 1 6 36 80 72.7 53.2 30.06 11.35 0.00 0.00 0.00 0.000
8:22am 70 1 6 36 80 72.7 53.2 30.06 11.35 0.00 0.00 0.00 0.000
8:23am 63 0 6 36 80 72.7 53.2 30.06 11.35 0.00 0.00 0.00 0.000
8:24am 63 0 6 36 80 72.7 53.2 30.06 11.35 0.00 0.00 0.00 0.000
8:25am 136 2 6 36 80 72.7 53.3 30.06 11.35 0.00 0.00 0.00 0.000
8:26am 190 2 6 36 80 72.7 53.3 30.06 11.35 0.00 0.00 0.00 0.000
8:27am 189 2 6 36 80 72.5 53.3 30.06 11.35 0.00 0.00 0.00 0.000
8:28am 178 3 6 36 81 72.5 53.3 30.06 11.35 0.00 0.00 0.00 0.000
8:29am 193 5 6 36 81 72.5 53.3 30.06 11.36 0.01 0.01 0.01 0.000
8:30am 148 0 6 36 81 72.5 53.3 30.07 11.36 0.01 0.01 0.01 0.000
8:31am 157 2 7 36 81 72.5 53.3 30.07 11.36 0.01 0.01 0.01 0.000
8:32am 174 5 7 36 81 72.5 53.3 30.07 11.37 0.02 0.02 0.02 0.180
8:33am 165 3 7 36 81 72.5 53.3 30.07 11.37 0.02 0.02 0.02 0.180
8:34am 166 5 7 36 81 72.5 53.3 30.07 11.38 0.03 0.03 0.03 0.470
8:35am 169 4 7 36 81 72.5 53.3 30.07 11.38 0.03 0.03 0.03 0.280
8:36am 184 6 7 36 81 72.5 53.2 30.07 11.39 0.04 0.04 0.04 0.240
8:37am 163 3 7 36 81 72.5 53.2 30.07 11.39 0.04 0.04 0.04 0.240
8:38am 155 2 7 36 81 72.5 53.2 30.07 11.39 0.04 0.04 0.04 0.260
8:39am 161 2 7 36 81 72.5 53.2 30.07 11.40 0.05 0.05 0.05 0.260
8:40am 190 2 7 36 81 72.5 53.2 30.07 11.41 0.06 0.06 0.06 0.410
8:41am 190 0 7 36 81 72.5 53.1 30.07 11.41 0.06 0.06 0.06 0.330
8:42am 190 2 7 36 81 72.5 53.1 30.07 11.42 0.07 0.07 0.07 0.270
8:43am 190 0 7 36 81 72.5 53.1 30.07 11.42 0.07 0.07 0.07 0.270
8:44am 82 2 7 36 81 72.5 53.1 30.07 11.42 0.07 0.07 0.07 0.230
8:45am 88 3 7 36 81 72.5 53.1 30.07 11.42 0.07 0.07 0.07 0.170
8:46am 88 0 3 36 81 72.5 53.1 30.08 11.42 0.07 0.07 0.07 0.130
8:47am 90 1 3 36 81 72.5 53.1 30.08 11.43 0.08 0.08 0.08 0.120
8:48am 90 4 4 36 81 72.5 53.1 30.08 11.43 0.08 0.08 0.08 0.120
8:49am 62 2 5 36 81 72.5 53.1 30.08 11.43 0.08 0.08 0.08 0.120
8:50am 90 1 5 36 82 72.3 53.0 30.08 11.43 0.08 0.08 0.08 0.120
8:51am 93 0 5 36 82 72.3 53.1 30.08 11.43 0.08 0.08 0.08 0.120
8:52am 80 1 5 36 82 72.3 53.1 30.08 11.43 0.08 0.08 0.08 0.110
8:53am 86 0 5 36 82 72.3 53.0 30.08 11.44 0.09 0.09 0.09 0.110
8:54am 81 3 5 36 82 72.3 53.1 30.08 11.44 0.09 0.09 0.09 0.110
8:55am 86 2 5 36 82 72.3 53.0 30.08 11.44 0.09 0.09 0.09 0.110
8:56am 78 4 5 36 82 72.3 53.0 30.08 11.44 0.09 0.09 0.09 0.110
8:57am 128 0 5 36 82 72.3 53.0 30.08 11.44 0.09 0.09 0.09 0.110
8:58am 85 0 5 36 82 72.3 52.9 30.08 11.45 0.10 0.10 0.10 0.120
8:59am 84 3 5 36 82 72.3 52.9 30.08 11.45 0.10 0.10 0.10 0.120
9:00am 82 3 5 37 82 72.3 52.9 30.08 11.45 0.10 0.10 0.10 0.120
9:01am 103 3 6 36 82 72.3 52.8 30.08 11.45 0.10 0.10 0.10 0.120
9:02am 85 3 6 37 82 72.3 52.8 30.08 11.45 0.10 0.10 0.10 0.120
9:03am 93 4 6 37 82 72.3 52.7 30.08 11.46 0.11 0.11 0.11 0.110
9:04am 92 3 6 37 82 72.3 52.7 30.08 11.46 0.11 0.11 0.11 0.110
9:05am 96 0 6 37 82 72.3 52.6 30.08 11.46 0.11 0.11 0.11 0.110
9:06am 85 5 6 37 83 72.3 52.6 30.08 11.46 0.11 0.11 0.11 0.110
9:07am 112 7 10 37 83 72.3 52.6 30.08 11.46 0.11 0.11 0.11 0.110
9:07am 75 3 10 37 83 72.3 52.6 30.08 11.46 0.11 0.11 0.11 0.110
9:09am 99 4 10 37 83 72.3 52.5 30.08 11.46 0.11 0.11 0.11 0.100
9:10am 86 2 10 37 83 72.3 52.5 30.08 11.46 0.11 0.11 0.11 0.080
9:11am 90 4 10 37 83 72.3 52.5 30.08 11.46 0.11 0.11 0.11 0.070
9:12am 81 3 10 37 83 72.3 52.4 30.08 11.46 0.11 0.11 0.11 0.070
9:13am 78 3 10 37 83 72.3 52.4 30.09 11.46 0.11 0.11 0.11 0.060
9:14am 85 4 10 37 83 72.3 52.3 30.09 11.46 0.11 0.11 0.11 0.050
9:15am 86 6 10 37 83 72.3 52.3 30.09 11.47 0.12 0.12 0.12 0.050
9:16am 88 4 6 37 83 72.3 52.2 30.09 11.47 0.12 0.12 0.12 0.320
9:17am 86 3 6 37 83 72.3 52.2 30.08 11.48 0.13 0.13 0.13 0.320
9:18am 88 2 6 37 83 72.1 52.1 30.09 11.48 0.13 0.13 0.13 0.250
9:19am 88 2 6 37 83 72.1 52.1 30.09 11.48 0.13 0.13 0.13 0.180
9:20am 152 1 6 37 83 72.1 52.1 30.09 11.48 0.13 0.13 0.13 0.140
9:21am 152 0 6 37 83 72.1 52.1 30.09 11.48 0.13 0.13 0.13 0.110
9:22am 152 0 6 37 83 72.1 52.1 30.09 11.48 0.13 0.13 0.13 0.090
9:23am 152 0 6 37 84 72.1 52.1 30.09 11.48 0.13 0.13 0.13 0.080
9:24am 133 0 6 37 84 72.1 52.1 30.09 11.48 0.13 0.13 0.13 0.070
9:25am 133 0 6 37 84 72.1 52.1 30.09 11.48 0.13 0.13 0.13 0.070
9:26am 96 2 6 37 84 72.1 52.1 30.09 11.48 0.13 0.13 0.13 0.060
9:27am 85 3 6 37 84 72.1 52.1 30.09 11.48 0.13 0.13 0.13 0.050
9:28am 88 2 6 37 84 72.1 52.1 30.09 11.48 0.13 0.13 0.13 0.050
9:29am 107 4 6 37 84 72.1 52.1 30.09 11.48 0.13 0.13 0.13 0.050
9:30am 89 5 6 37 84 72.1 52.1 30.09 11.48 0.13 0.13 0.13 0.040
9:31am 79 3 5 37 84 72.1 52.1 30.09 11.48 0.13 0.12 0.13 0.040
9:32am 83 3 5 37 84 72.1 52.1 30.09 11.48 0.13 0.12 0.13 0.040
9:33am 69 4 6 37 84 72.1 52.1 30.09 11.48 0.13 0.12 0.13 0.000
9:34am 92 2 6 37 84 72.1 52.1 30.09 11.48 0.13 0.12 0.13 0.000
9:35am 85 4 6 37 84 72.1 52.1 30.09 11.48 0.13 0.12 0.13 0.000
9:36am 94 4 7 37 84 72.1 52.1 30.09 11.48 0.13 0.12 0.13 0.000
9:37am 93 6 7 37 84 72.1 52.1 30.09 11.48 0.13 0.12 0.13 0.000
9:38am 96 5 7 37 84 72.1 52.0 30.09 11.48 0.13 0.12 0.13 0.000
9:39am 101 6 7 37 84 72.1 52.0 30.09 11.48 0.13 0.12 0.13 0.000
9:40am 92 1 7 37 84 72.1 51.9 30.09 11.48 0.13 0.12 0.13 0.000
9:41am 101 4 7 37 84 72.1 51.9 30.09 11.48 0.13 0.12 0.13 0.000
9:42am 105 5 7 37 84 72.1 51.9 30.09 11.48 0.13 0.12 0.13 0.000
9:43am 88 3 8 38 84 72.1 51.8 30.09 11.48 0.13 0.12 0.13 0.000
9:44am 94 3 8 38 84 72.1 51.8 30.09 11.48 0.13 0.12 0.13 0.000
9:45am 103 3 8 38 84 72.1 51.8 30.09 11.48 0.13 0.12 0.13 0.000
9:46am 105 4 4 38 85 72.1 51.8 30.09 11.48 0.13 0.06 0.13 0.000
9:47am 90 3 5 38 85 72.1 51.8 30.09 11.48 0.13 0.06 0.13 0.000
9:48am 109 4 5 38 85 72.0 51.8 30.09 11.48 0.13 0.06 0.13 0.000
9:49am 86 2 5 38 85 72.0 51.8 30.09 11.48 0.13 0.06 0.13 0.000
9:50am 74 6 6 38 85 72.0 51.8 30.09 11.48 0.13 0.06 0.13 0.000
9:51am 79 6 6 38 85 72.0 51.8 30.09 11.48 0.13 0.06 0.13 0.000
9:52am 82 4 6 38 85 72.0 51.8 30.09 11.48 0.13 0.06 0.13 0.000
9:53am 71 6 6 38 85 72.0 51.8 30.09 11.48 0.13 0.06 0.13 0.000
9:54am 98 6 6 38 85 72.0 51.8 30.09 11.48 0.13 0.06 0.13 0.000
9:55am 81 2 6 38 85 72.0 51.8 30.09 11.48 0.13 0.06 0.13 0.000
9:56am 81 0 6 38 85 72.0 51.8 30.09 11.48 0.13 0.06 0.13 0.000
9:57am 69 3 6 38 85 72.0 51.8 30.09 11.48 0.13 0.06 0.13 0.000
9:58am 84 3 6 38 85 72.0 51.8 30.09 11.48 0.13 0.06 0.13 0.000
9:59am 89 2 6 38 85 72.0 51.8 30.09 11.48 0.13 0.06 0.13 0.000
10:00am 88 3 7 38 85 72.0 51.9 30.09 11.48 0.13 0.06 0.13 0.000
10:00am 74 4 4 38 85 72.0 51.9 30.09 11.48 0.13 0.06 0.13 0.000
10:02am 86 4 6 38 85 72.0 51.9 30.09 11.48 0.13 0.03 0.13 0.000
10:03am 50 4 6 38 85 72.0 52.0 30.09 11.48 0.13 0.03 0.13 0.000
10:04am 72 5 6 38 85 72.0 52.0 30.09 11.48 0.13 0.03 0.13 0.000
10:05am 72 4 6 38 85 72.0 52.0 30.09 11.48 0.13 0.03 0.13 0.000
10:06am 59 4 6 38 85 72.0 52.1 30.09 11.48 0.13 0.03 0.13 0.000
10:07am 77 5 6 38 85 72.0 52.1 30.09 11.48 0.13 0.03 0.13 0.000
10:08am 54 4 6 38 85 72.0 52.1 30.09 11.48 0.13 0.03 0.13 0.000
10:09am 69 3 6 38 85 72.0 52.0 30.09 11.48 0.13 0.03 0.13 0.000
10:10am 70 5 6 38 85 72.0 52.1 30.09 11.48 0.13 0.03 0.13 0.000
10:11am 76 4 6 38 85 72.0 52.1 30.09 11.48 0.13 0.03 0.13 0.000
10:12am 69 4 6 38 85 72.0 52.1 30.09 11.48 0.13 0.03 0.13 0.000
10:13am 79 3 6 38 85 72.0 52.1 30.09 11.48 0.13 0.03 0.13 0.000
10:14am 96 1 6 38 85 72.0 52.1 30.09 11.48 0.13 0.03 0.13 0.000
10:15am 118 4 6 38 85 71.8 52.1 30.09 11.48 0.13 0.03 0.13 0.000
10:16am 100 4 5 38 85 71.8 52.1 30.09 11.48 0.13 0.01 0.13 0.000
10:17am 100 3 5 38 85 71.8 52.1 30.09 11.48 0.13 0.01 0.13 0.000
10:18am 95 0 5 38 85 71.8 52.1 30.09 11.48 0.13 0.01 0.13 0.000
10:19am 83 2 5 38 85 71.8 52.1 30.09 11.48 0.13 0.01 0.13 0.000
10:20am 83 0 5 38 85 71.8 52.2 30.09 11.48 0.13 0.01 0.13 0.000
10:21am 83 0 5 38 85 71.8 52.2 30.09 11.48 0.13 0.01 0.13 0.000
10:22am 82 1 5 38 85 71.8 52.2 30.09 11.48 0.13 0.01 0.13 0.000
10:23am 82 0 5 38 85 71.8 52.2 30.09 11.48 0.13 0.01 0.13 0.000
10:24am 81 3 5 38 85 71.8 52.3 30.09 11.48 0.13 0.01 0.13 0.000
10:25am 82 2 5 38 85 71.8 52.3 30.09 11.48 0.13 0.01 0.13 0.000
10:26am 94 4 5 38 85 71.8 52.4 30.09 11.48 0.13 0.01 0.13 0.000
10:27am 105 4 5 38 85 71.8 52.4 30.09 11.48 0.13 0.01 0.13 0.000
10:28am 105 3 5 38 85 71.8 52.4 30.09 11.48 0.13 0.01 0.13 0.000
10:29am 97 5 5 38 85 71.8 52.4 30.09 11.48 0.13 0.01 0.13 0.000
10:30am 103 1 5 38 85 71.8 52.4 30.09 11.48 0.13 0.01 0.13 0.000
10:31am 96 2 3 38 85 71.8 52.5 30.09 11.48 0.13 0.00 0.13 0.000
10:32am 72 3 3 38 85 71.8 52.5 30.09 11.48 0.13 0.00 0.13 0.000
10:33am 65 3 5 38 85 71.8 52.5 30.09 11.48 0.13 0.00 0.13 0.000
10:34am 68 2 5 38 84 71.8 52.5 30.09 11.48 0.13 0.00 0.13 0.000
10:35am 68 3 5 38 84 71.8 52.6 30.09 11.48 0.13 0.00 0.13 0.000
10:36am 70 5 5 38 84 71.8 52.6 30.09 11.48 0.13 0.00 0.13 0.000
10:37am 104 3 5 38 84 71.8 52.6 30.09 11.48 0.13 0.00 0.13 0.000
10:38am 90 4 5 38 84 71.8 52.6 30.09 11.48 0.13 0.00 0.13 0.000
10:39am 67 5 5 38 84 71.8 52.7 30.09 11.48 0.13 0.00 0.13 0.000
10:40am 90 2 5 38 84 71.8 52.7 30.09 11.48 0.13 0.00 0.13 0.000
10:41am 70 4 5 38 84 71.8 52.8 30.09 11.48 0.13 0.00 0.13 0.000
10:42am 62 3 6 38 84 71.8 52.8 30.09 11.48 0.13 0.00 0.13 0.000
10:43am 80 5 6 38 84 71.8 52.8 30.09 11.48 0.13 0.00 0.13 0.000
10:44am 81 1 6 38 84 71.8 52.9 30.09 11.48 0.13 0.00 0.13 0.000
10:45am 74 3 6 38 83 71.8 52.9 30.09 11.48 0.13 0.00 0.13 0.000
10:46am 74 3 4 38 83 71.8 52.9 30.09 11.48 0.13 0.00 0.13 0.000
10:47am 65 1 4 38 83 71.8 53.0 30.10 11.48 0.13 0.00 0.13 0.000
10:48am 65 1 4 38 83 71.8 53.1 30.10 11.48 0.13 0.00 0.13 0.000
10:49am 67 0 4 38 83 71.8 53.1 30.10 11.48 0.13 0.00 0.13 0.000
10:50am 80 3 4 38 83 71.8 53.1 30.10 11.48 0.13 0.00 0.13 0.000
10:51am 80 0 4 38 83 71.8 53.2 30.10 11.48 0.13 0.00 0.13 0.000
10:52am 80 1 4 38 83 71.8 53.2 30.10 11.48 0.13 0.00 0.13 0.000
10:53am 80 0 4 38 83 71.8 53.2 30.10 11.48 0.13 0.00 0.13 0.000
10:54am 80 0 4 38 83 71.8 53.3 30.10 11.48 0.13 0.00 0.13 0.000
10:55am 80 0 4 38 83 71.8 53.3 30.10 11.48 0.13 0.00 0.13 0.000
10:56am 80 0 4 38 83 71.8 53.3 30.10 11.48 0.13 0.00 0.13 0.000
10:57am 80 2 4 38 82 71.8 53.4 30.10 11.48 0.13 0.00 0.13 0.000
10:57am 80 0 4 38 82 71.8 53.4 30.10 11.48 0.13 0.00 0.13 0.000
10:59am 67 3 5 38 82 71.8 53.4 30.10 11.48 0.13 0.00 0.13 0.000
11:00am 74 2 5 38 82 71.8 53.4 30.10 11.48 0.13 0.00 0.13 0.000
11:01am 80 3 3 38 82 71.8 53.4 30.10 11.48 0.13 0.00 0.13 0.000
11:02am 74 3 4 38 82 71.8 53.4 30.10 11.48 0.13 0.00 0.13 0.000
11:03am 73 2 4 38 82 71.8 53.4 30.10 11.48 0.13 0.00 0.13 0.000
11:04am 74 1 4 38 82 71.8 53.5 30.10 11.48 0.13 0.00 0.13 0.000
11:05am 74 2 4 38 81 71.8 53.5 30.10 11.48 0.13 0.00 0.13 0.000
11:06am 74 1 4 38 81 71.8 53.5 30.10 11.48 0.13 0.00 0.13 0.000
11:07am 74 0 4 38 81 71.8 53.6 30.10 11.48 0.13 0.00 0.13 0.000
11:08am 74 3 4 38 81 71.8 53.6 30.10 11.48 0.13 0.00 0.13 0.000
11:09am 74 1 4 38 81 71.8 53.7 30.10 11.48 0.13 0.00 0.13 0.000
11:10am 73 0 4 38 81 71.8 53.8 30.10 11.48 0.13 0.00 0.13 0.000
11:11am 73 1 4 38 81 71.8 53.8 30.10 11.48 0.13 0.00 0.13 0.000
11:12am 74 0 4 38 81 71.8 53.8 30.10 11.48 0.13 0.00 0.13 0.000
11:13am 59 2 4 38 81 71.8 53.9 30.10 11.48 0.13 0.00 0.13 0.000
11:14am 49 2 4 38 81 71.8 53.9 30.10 11.48 0.13 0.00 0.13 0.000
11:15am 52 2 4 38 81 71.8 53.9 30.10 11.48 0.13 0.00 0.13 0.000
11:16am 58 2 4 38 81 71.8 53.9 30.10 11.48 0.13 0.00 0.13 0.000
11:17am 59 2 4 38 80 71.8 53.9 30.10 11.48 0.13 0.00 0.13 0.000
11:18am 58 3 4 38 80 71.8 53.9 30.10 11.48 0.13 0.00 0.13 0.000
11:19am 59 0 4 38 80 71.8 54.0 30.10 11.48 0.13 0.00 0.13 0.000
11:20am 59 2 4 38 80 71.8 54.0 30.10 11.48 0.13 0.00 0.13 0.000
11:21am 59 3 4 38 80 71.8 54.0 30.10 11.48 0.13 0.00 0.13 0.000
11:22am 74 3 4 38 80 71.8 54.0 30.10 11.48 0.13 0.00 0.13 0.000
11:23am 91 4 4 38 80 71.8 54.0 30.10 11.48 0.13 0.00 0.13 0.000
11:24am 92 3 4 38 79 71.8 54.0 30.10 11.48 0.13 0.00 0.13 0.000
11:25am 90 1 4 38 79 71.8 54.0 30.10 11.48 0.13 0.00 0.13 0.000
11:26am 90 1 4 38 79 71.8 54.1 30.10 11.48 0.13 0.00 0.13 0.000
11:27am 90 0 4 38 79 71.8 54.1 30.10 11.48 0.13 0.00 0.13 0.000
11:28am 33 4 5 38 79 71.8 54.2 30.10 11.48 0.13 0.00 0.13 0.000
11:29am 32 2 5 38 79 71.8 54.2 30.10 11.48 0.13 0.00 0.13 0.000
11:30am 33 1 5 38 79 71.8 54.2 30.10 11.48 0.13 0.00 0.13 0.000
11:31am 36 1 3 38 78 71.8 54.2 30.10 11.48 0.13 0.00 0.13 0.000
11:32am 36 2 3 38 78 71.8 54.2 30.10 11.48 0.13 0.00 0.13 0.000
11:33am 92 4 5 38 78 71.8 54.2 30.10 11.48 0.13 0.00 0.13 0.000
11:34am 101 1 5 38 78 71.8 54.3 30.10 11.48 0.13 0.00 0.13 0.000
11:35am 107 2 5 38 81 71.8 54.2 30.10 11.48 0.13 0.00 0.13 0.000
11:36am 86 3 6 38 78 71.8 54.3 30.10 11.48 0.13 0.00 0.13 0.000
11:37am 77 4 6 38 78 71.8 54.3 30.10 11.48 0.13 0.00 0.13 0.000
11:38am 80 3 6 38 78 71.8 54.3 30.10 11.48 0.13 0.00 0.13 0.000
11:39am 80 2 6 38 77 71.8 54.3 30.10 11.48 0.13 0.00 0.13 0.000
11:40am 80 0 6 38 77 71.8 54.3 30.10 11.48 0.13 0.00 0.13 0.000
11:41am 47 2 6 38 77 71.8 54.4 30.10 11.48 0.13 0.00 0.13 0.000
11:42am 47 2 6 39 77 71.8 54.4 30.10 11.48 0.13 0.00 0.13 0.000
11:43am 48 2 6 39 77 71.8 54.4 30.10 11.48 0.13 0.00 0.13 0.000
11:44am 54 0 6 38 77 71.8 54.4 30.10 11.48 0.13 0.00 0.13 0.000
11:45am 54 0 6 38 76 71.8 54.5 30.10 11.48 0.13 0.00 0.13 0.000
11:46am 55 2 3 38 76 71.8 54.5 30.10 11.48 0.13 0.00 0.13 0.000
11:47am 55 2 3 38 76 71.8 54.5 30.10 11.48 0.13 0.00 0.13 0.000
11:48am 55 3 4 38 76 71.8 54.5 30.10 11.48 0.13 0.00 0.13 0.000
11:49am 55 0 4 38 76 71.8 54.6 30.10 11.48 0.13 0.00 0.13 0.000
11:50am 62 2 4 38 76 71.8 54.6 30.10 11.48 0.13 0.00 0.13 0.000
11:51am 62 1 4 38 76 71.8 54.6 30.10 11.48 0.13 0.00 0.13 0.000
11:52am 49 2 4 38 76 71.8 54.7 30.10 11.48 0.13 0.00 0.13 0.000
11:53am 50 1 4 38 76 71.8 54.7 30.10 11.48 0.13 0.00 0.13 0.000
11:54am 70 3 4 38 76 71.8 54.7 30.10 11.48 0.13 0.00 0.13 0.000
11:55am 70 2 4 38 76 71.8 54.7 30.10 11.48 0.13 0.00 0.13 0.000
11:56am 69 3 4 38 76 71.8 54.7 30.10 11.48 0.13 0.00 0.13 0.000
11:57am 69 0 4 38 76 71.8 54.8 30.10 11.48 0.13 0.00 0.13 0.000
11:58am 69 0 4 38 76 71.8 54.7 30.10 11.48 0.13 0.00 0.13 0.000
11:59am 69 0 4 38 76 71.8 54.8 30.10 11.48 0.13 0.00 0.13 0.000
12:00pm 65 2 4 39 76 71.8 54.8 30.10 11.48 0.13 0.00 0.13 0.000
12:01pm 65 1 3 39 75 71.8 54.7 30.10 11.48 0.13 0.00 0.13 0.000
12:02pm 65 2 3 39 75 71.8 54.7 30.10 11.48 0.13 0.00 0.13 0.000
12:03pm 65 3 3 39 75 71.8 54.7 30.10 11.48 0.13 0.00 0.13 0.000
12:04pm 65 1 4 39 75 71.8 54.8 30.10 11.48 0.13 0.00 0.13 0.000
12:05pm 65 0 4 39 75 71.8 54.8 30.10 11.48 0.13 0.00 0.13 0.000
12:06pm 65 0 4 39 75 71.8 54.8 30.10 11.48 0.13 0.00 0.13 0.000
12:07pm 65 0 4 39 75 71.8 54.8 30.10 11.48 0.13 0.00 0.13 0.000
12:08pm 65 0 4 39 75 71.8 54.8 30.10 11.48 0.13 0.00 0.13 0.000
12:09pm 65 0 4 39 75 71.8 54.8 30.10 11.48 0.13 0.00 0.13 0.000
12:10pm 65 0 4 39 75 71.8 54.8 30.10 11.48 0.13 0.00 0.13 0.000
12:11pm 65 0 4 39 75 71.8 54.9 30.10 11.48 0.13 0.00 0.13 0.000
12:12pm 65 2 4 39 75 71.8 54.9 30.10 11.48 0.13 0.00 0.13 0.000
12:13pm 65 2 4 39 75 71.8 54.9 30.10 11.48 0.13 0.00 0.13 0.000
12:14pm 65 0 4 39 75 71.8 54.9 30.10 11.48 0.13 0.00 0.13 0.000
12:15pm 65 3 4 39 74 72.0 54.9 30.10 11.48 0.13 0.00 0.13 0.000
12:15pm 65 2 2 39 74 72.0 54.9 30.10 11.48 0.13 0.00 0.13 0.000
12:17pm 36 4 6 39 74 72.0 55.0 30.10 11.48 0.13 0.00 0.13 0.000
12:18pm 16 1 6 39 74 72.0 55.0 30.10 11.48 0.13 0.00 0.13 0.000
12:19pm 16 0 6 39 74 72.0 55.1 30.10 11.48 0.13 0.00 0.13 0.000
12:20pm 16 0 6 39 74 72.0 55.1 30.10 11.48 0.13 0.00 0.13 0.000
12:21pm 16 0 6 39 74 72.0 55.1 30.10 11.48 0.13 0.00 0.13 0.000
12:22pm 16 0 6 39 74 72.0 55.2 30.10 11.48 0.13 0.00 0.13 0.000
12:23pm 16 0 6 39 74 72.0 55.2 30.10 11.48 0.13 0.00 0.13 0.000
12:24pm 16 0 6 39 74 72.0 55.3 30.10 11.48 0.13 0.00 0.13 0.000
12:25pm 16 0 6 39 74 72.0 55.4 30.10 11.48 0.13 0.00 0.13 0.000
12:26pm 16 2 6 39 74 72.0 55.5 30.10 11.48 0.13 0.00 0.13 0.000
12:27pm 17 0 6 39 74 72.0 55.5 30.09 11.48 0.13 0.00 0.13 0.000
12:28pm 17 0 6 39 74 72.0 55.6 30.09 11.48 0.13 0.00 0.13 0.000
12:29pm 17 0 6 39 74 72.1 55.6 30.09 11.48 0.13 0.00 0.13 0.000
12:30pm 17 1 6 39 74 72.1 55.7 30.09 11.48 0.13 0.00 0.13 0.000
12:31pm 16 0 3 39 74 72.1 55.8 30.09 11.48 0.13 0.00 0.13 0.000
12:32pm 62 4 5 39 73 72.1 55.8 30.09 11.48 0.13 0.00 0.13 0.000
12:33pm 67 1 5 39 73 72.1 55.9 30.09 11.48 0.13 0.00 0.13 0.000
12:34pm 128 1 5 39 73 72.1 55.9 30.09 11.48 0.13 0.00 0.13 0.000
12:35pm 142 1 5 39 73 72.1 56.0 30.09 11.48 0.13 0.00 0.13 0.000
12:36pm 109 0 5 39 73 72.1 56.1 30.09 11.48 0.13 0.00 0.13 0.000
12:37pm 118 1 5 39 72 72.1 56.2 30.09 11.48 0.13 0.00 0.13 0.000
12:38pm 118 0 5 39 72 72.1 56.3 30.09 11.48 0.13 0.00 0.13 0.000
12:39pm 118 0 5 39 72 72.1 56.4 30.09 11.48 0.13 0.00 0.13 0.000
12:40pm 118 0 5 39 72 72.1 56.5 30.09 11.48 0.13 0.00 0.13 0.000
12:41pm 155 0 5 39 71 72.1 56.6 30.09 11.48 0.13 0.00 0.13 0.000
12:42pm 196 0 5 39 71 72.3 56.7 30.09 11.48 0.13 0.00 0.13 0.000
12:43pm 196 0 5 39 71 72.3 56.8 30.09 11.48 0.13 0.00 0.13 0.000
12:44pm 56 2 5 39 71 72.3 56.9 30.09 11.48 0.13 0.00 0.13 0.000
12:45pm 67 5 5 39 70 72.3 57.0 30.08 11.48 0.13 0.00 0.13 0.000
12:46pm 99 4 6 39 70 72.3 57.0 30.08 11.48 0.13 0.00 0.13 0.000
12:47pm 92 3 6 39 69 72.3 57.0 30.08 11.48 0.13 0.00 0.13 0.000
12:48pm 85 0 6 39 68 72.3 57.0 30.08 11.48 0.13 0.00 0.13 0.000
12:49pm 140 2 6 38 68 72.3 57.0 30.08 11.48 0.13 0.00 0.13 0.000
12:50pm 105 2 6 38 68 72.3 57.0 30.08 11.48 0.13 0.00 0.13 0.000
12:51pm 107 0 6 38 68 72.3 57.1 30.08 11.48 0.13 0.00 0.13 0.000
12:52pm 103 4 6 38 68 72.3 57.1 30.08 11.48 0.13 0.00 0.13 0.000
12:53pm 89 4 6 38 67 72.3 57.2 30.08 11.48 0.13 0.00 0.13 0.000
12:54pm 80 2 6 38 67 72.5 57.2 30.08 11.48 0.13 0.00 0.13 0.000
12:55pm 77 2 6 38 67 72.5 57.2 30.08 11.48 0.13 0.00 0.13 0.000
12:56pm 84 4 6 38 66 72.5 57.3 30.08 11.48 0.13 0.00 0.13 0.000
12:57pm 101 2 6 38 66 72.5 57.3 30.08 11.48 0.13 0.00 0.13 0.000
12:58pm 92 0 6 38 66 72.5 57.3 30.08 11.48 0.13 0.00 0.13 0.000
12:59pm 92 0 6 38 66 72.5 57.4 30.08 11.48 0.13 0.00 0.13 0.000
1:00pm 103 0 6 38 66 72.5 57.4 30.08 11.48 0.13 0.00 0.13 0.000
1:01pm 73 3 4 38 66 72.5 57.5 30.08 11.48 0.13 0.00 0.13 0.000
1:02pm 111 1 4 38 65 72.5 57.5 30.08 11.48 0.13 0.00 0.13 0.000
1:03pm 74 6 6 38 65 72.5 57.6 30.08 11.48 0.13 0.00 0.13 0.000
1:04pm 67 1 6 38 65 72.5 57.6 30.08 11.48 0.13 0.00 0.13 0.000
1:05pm 85 4 6 38 65 72.5 57.7 30.08 11.48 0.13 0.00 0.13 0.000
1:06pm 77 0 6 38 64 72.5 57.8 30.08 11.48 0.13 0.00 0.13 0.000
1:07pm 49 2 6 38 64 72.7 57.9 30.08 11.48 0.13 0.00 0.13 0.000
1:08pm 99 4 6 38 64 72.7 58.0 30.08 11.48 0.13 0.00 0.13 0.000
1:09pm 159 0 6 38 64 72.7 58.1 30.08 11.48 0.13 0.00 0.13 0.000
1:10pm 165 0 6 38 64 72.7 58.2 30.08 11.48 0.13 0.00 0.13 0.000
1:11pm 165 0 6 38 64 72.7 58.3 30.08 11.48 0.13 0.00 0.13 0.000
1:12pm 165 2 6 38 63 72.7 58.4 30.08 11.48 0.13 0.00 0.13 0.000
1:13pm 209 2 6 38 63 72.7 58.5 30.08 11.48 0.13 0.00 0.13 0.000
1:14pm 158 0 6 38 63 72.7 58.6 30.07 11.48 0.13 0.00 0.13 0.000
1:15pm 105 4 6 38 63 72.7 58.6 30.07 11.48 0.13 0.00 0.13 0.000
1:16pm 105 0 4 38 63 72.7 58.7 30.07 11.48 0.13 0.00 0.13 0.000
1:17pm 221 4 4 38 62 72.7 58.6 30.07 11.48 0.13 0.00 0.13 0.000
1:18pm 221 2 4 38 62 72.7 58.7 30.07 11.48 0.13 0.00 0.13 0.000
1:19pm 221 0 4 38 61 72.7 58.7 30.07 11.48 0.13 0.00 0.13 0.000
1:20pm 221 0 4 38 61 72.7 58.7 30.07 11.48 0.13 0.00 0.13 0.000
1:21pm 221 0 4 38 61 72.7 58.7 30.07 11.48 0.13 0.00 0.13 0.000
1:22pm 221 0 4 38 61 72.7 58.7 30.07 11.48 0.13 0.00 0.13 0.000
1:23pm 221 0 4 38 61 72.7 58.7 30.07 11.48 0.13 0.00 0.13 0.000
1:24pm 221 0 4 38 61 72.7 58.7 30.07 11.48 0.13 0.00 0.13 0.000
1:25pm 221 0 4 38 61 72.7 58.7 30.07 11.48 0.13 0.00 0.13 0.000
1:26pm 221 2 4 38 61 72.8 58.7 30.07 11.48 0.13 0.00 0.13 0.000
1:27pm 352 2 4 38 61 72.8 58.7 30.07 11.48 0.13 0.00 0.13 0.000
1:28pm 352 0 4 38 61 72.8 58.7 30.07 11.48 0.13 0.00 0.13 0.000
1:29pm 352 0 4 38 61 72.8 58.6 30.07 11.48 0.13 0.00 0.13 0.000
1:30pm 352 0 4 38 60 72.8 58.7 30.07 11.48 0.13 0.00 0.13 0.000
1:31pm 352 0 0 38 61 72.8 58.7 30.07 11.48 0.13 0.00 0.13 0.000
1:32pm 352 0 0 38 60 72.8 58.7 30.07 11.48 0.13 0.00 0.13 0.000
1:33pm 352 0 0 38 60 72.8 58.6 30.07 11.48 0.13 0.00 0.13 0.000
1:34pm 19 3 3 38 60 72.8 58.7 30.07 11.48 0.13 0.00 0.13 0.000
1:35pm 228 3 3 38 60 72.8 58.6 30.07 11.48 0.13 0.00 0.13 0.000
1:36pm 228 1 3 38 60 72.8 58.6 30.07 11.48 0.13 0.00 0.13 0.000
1:37pm 224 3 4 38 60 72.8 58.6 30.07 11.48 0.13 0.00 0.13 0.000
1:38pm 222 2 4 38 60 72.8 58.6 30.07 11.48 0.13 0.00 0.13 0.000
1:39pm 192 4 5 38 60 72.8 58.6 30.07 11.48 0.13 0.00 0.13 0.000
1:40pm 191 2 5 38 60 72.8 58.6 30.07 11.48 0.13 0.00 0.13 0.000
1:41pm 191 0 5 38 60 72.8 58.6 30.07 11.48 0.13 0.00 0.13 0.000
1:42pm 191 0 5 38 60 72.8 58.6 30.07 11.48 0.13 0.00 0.13 0.000
1:43pm 192 3 5 38 60 73.0 58.6 30.07 11.48 0.13 0.00 0.13 0.000
1:44pm 192 3 5 38 60 73.0 58.6 30.07 11.48 0.13 0.00 0.13 0.000
1:45pm 192 0 5 38 60 73.0 58.6 30.07 11.48 0.13 0.00 0.13 0.000
1:46pm 70 2 2 38 60 73.0 58.7 30.07 11.48 0.13 0.00 0.13 0.000
1:47pm 89 0 3 38 60 73.0 58.6 30.07 11.48 0.13 0.00 0.13 0.000
1:48pm 163 4 5 38 61 73.0 58.6 30.07 11.48 0.13 0.00 0.13 0.000
1:49pm 160 3 5 38 61 73.0 58.7 30.07 11.48 0.13 0.00 0.13 0.000
1:50pm 167 3 5 38 61 73.0